Location: Chuathbaluk
(61.5726°N, 159.2454°W)
Time: 03:33:21
(UTC+00:00)

S-56A Canister/Altair - Pass Details

Date: 28 November 2020
Orbit: 633 x 2499 km, 38.9° (Epoch: 23 January)

Event Time Altitude Azimuth Distance (km) Brightness Sun altitude
Rises 08:13:01 0° 229° (SW) 4,813 11.6 -43.8°
Enters shadow 08:14:39 - 224° (SW) 4,372 11.4 -44.0°
Reaches altitude 10° 08:19:29 10° 200° (SSW) 3,287 - -44.4°
Maximum altitude 08:21:33 11° 185° (S) 3,020 - -44.5°
Drops below altitude 10° 08:23:28 10° 169° (S) 2,945 - -44.7°
Sets 08:28:09 0° 135° (SE) 3,508 - -45.1°
